Time,TemperatureF,DewpointF,PressureIn,WindDirection,WindDirectionDegrees,WindSpeedMPH,WindSpeedGustMPH,Humidity,HourlyPrecipIn,Conditions,Clouds,dailyrainin,SoftwareType,DateUTC
2013-02-19 00:00:00,28.6,21.7,29.89,SSE,158,0.0,0.4,75,0.00,,,0.00,WUHU216HW,2013-02-19 05:00:00,
2013-02-19 00:05:00,28.8,21.9,29.89,SSE,158,0.0,0.2,75,0.00,,,0.00,WUHU216HW,2013-02-19 05:05:00,
2013-02-19 00:10:00,28.8,21.9,29.89,SSE,158,0.0,0.2,75,0.00,,,0.00,WUHU216HW,2013-02-19 05:10:00,
2013-02-19 00:15:00,28.8,21.9,29.89,SSE,158,0.0,0.2,75,0.00,,,0.00,WUHU216HW,2013-02-19 05:15:00,
2013-02-19 00:20:00,28.6,21.7,29.89,SSE,158,0.0,0.0,75,0.00,,,0.00,WUHU216HW,2013-02-19 05:20:00,
2013-02-19 00:25:00,28.6,21.7,29.89,SSE,158,0.0,0.4,75,0.00,,,0.00,WUHU216HW,2013-02-19 05:25:00,
2013-02-19 00:30:00,28.6,21.7,29.89,SSE,158,0.0,1.1,75,0.00,,,0.00,WUHU216HW,2013-02-19 05:30:00,
2013-02-19 00:35:00,28.4,21.5,29.90,SSE,158,0.0,1.1,75,0.00,,,0.00,WUHU216HW,2013-02-19 05:35:00,
2013-02-19 00:40:00,28.4,21.5,29.89,SSE,158,0.4,0.4,75,0.00,,,0.00,WUHU216HW,2013-02-19 05:40:00,
2013-02-19 00:45:00,28.4,21.8,29.89,SSE,158,0.0,0.7,76,0.00,,,0.00,WUHU216HW,2013-02-19 05:45:00,
2013-02-19 00:50:00,28.3,21.6,29.89,SSE,158,0.0,0.7,76,0.00,,,0.00,WUHU216HW,2013-02-19 05:50:00,
2013-02-19 00:55:00,28.4,21.8,29.89,SSE,158,0.0,0.4,76,0.00,,,0.00,WUHU216HW,2013-02-19 05:55:00,
2013-02-19 01:00:00,28.4,22.4,29.88,SSE,158,0.4,0.9,78,0.00,,,0.00,WUHU216HW,2013-02-19 06:00:00,
2013-02-19 01:05:00,28.1,21.8,29.88,SE,135,0.0,1.1,77,0.00,,,0.00,WUHU216HW,2013-02-19 06:05:00,
2013-02-19 01:10:00,28.1,21.8,29.88,SE,135,0.0,1.1,77,0.00,,,0.00,WUHU216HW,2013-02-19 06:10:00,
2013-02-19 01:15:00,28.4,22.2,29.87,NW,315,0.0,0.9,77,0.00,,,0.00,WUHU216HW,2013-02-19 06:15:00,
2013-02-19 01:20:00,28.6,22.0,29.87,NW,315,0.0,0.9,76,0.00,,,0.00,WUHU216HW,2013-02-19 06:20:00,
2013-02-19 01:25:00,28.8,22.1,29.87,NW,315,0.0,0.7,76,0.00,,,0.00,WUHU216HW,2013-02-19 06:25:00,
2013-02-19 01:30:00,29.0,22.3,29.86,NW,315,0.0,0.7,76,0.00,,,0.00,WUHU216HW,2013-02-19 06:30:00,
2013-02-19 01:35:00,29.2,22.5,29.86,WNW,293,0.0,0.2,76,0.00,,,0.00,WUHU216HW,2013-02-19 06:35:00,
2013-02-19 01:40:00,29.3,22.7,29.86,ENE,68,0.4,0.4,76,0.00,,,0.00,WUHU216HW,2013-02-19 06:40:00,
2013-02-19 01:45:00,29.5,22.9,29.86,ENE,68,0.0,0.4,76,0.00,,,0.00,WUHU216HW,2013-02-19 06:45:00,
2013-02-19 01:50:00,29.9,22.9,29.86,ENE,68,0.0,0.4,75,0.00,,,0.00,WUHU216HW,2013-02-19 06:50:00,
2013-02-19 01:55:00,29.9,23.2,29.85,NNW,338,0.2,0.2,76,0.00,,,0.00,WUHU216HW,2013-02-19 06:55:00,
2013-02-19 02:00:00,30.1,23.4,29.85,NW,315,0.0,0.4,76,0.00,,,0.00,WUHU216HW,2013-02-19 07:00:00,
2013-02-19 02:05:00,30.2,23.6,29.84,NW,315,0.0,0.4,76,0.00,,,0.00,WUHU216HW,2013-02-19 07:05:00,
2013-02-19 02:10:00,30.4,23.8,29.84,NW,315,0.4,0.4,76,0.00,,,0.00,WUHU216HW,2013-02-19 07:10:00,
2013-02-19 02:15:00,31.0,24.3,29.84,WSW,248,0.0,0.4,76,0.00,,,0.00,WUHU216HW,2013-02-19 07:15:00,
2013-02-19 02:20:00,31.0,24.3,29.84,South,180,0.0,0.4,76,0.00,,,0.00,WUHU216HW,2013-02-19 07:20:00,
2013-02-19 02:25:00,31.0,24.3,29.84,South,180,0.0,0.0,76,0.00,,,0.00,WUHU216HW,2013-02-19 07:25:00,
2013-02-19 02:30:00,30.6,24.0,29.84,South,180,0.0,0.4,76,0.00,,,0.00,WUHU216HW,2013-02-19 07:30:00,
2013-02-19 02:35:00,30.8,23.8,29.84,South,180,0.0,0.4,75,0.00,,,0.00,WUHU216HW,2013-02-19 07:35:00,
2013-02-19 02:40:00,31.0,23.9,29.84,South,180,0.0,0.0,75,0.00,,,0.00,WUHU216HW,2013-02-19 07:40:00,
2013-02-19 02:45:00,31.1,24.1,29.83,South,180,0.4,0.4,75,0.00,,,0.00,WUHU216HW,2013-02-19 07:45:00,
2013-02-19 02:50:00,31.0,23.9,29.83,South,180,0.0,0.4,75,0.00,,,0.00,WUHU216HW,2013-02-19 07:50:00,
2013-02-19 02:56:00,31.3,24.3,29.83,South,180,0.0,0.2,75,0.00,,,0.00,WUHU216HW,2013-02-19 07:56:00,
2013-02-19 03:01:00,31.3,24.3,29.82,South,180,0.0,0.0,75,0.00,,,0.00,WUHU216HW,2013-02-19 08:01:00,
2013-02-19 03:06:00,31.3,23.9,29.82,South,180,0.0,0.0,74,0.00,,,0.00,WUHU216HW,2013-02-19 08:06:00,
2013-02-19 03:11:00,31.3,23.9,29.81,South,180,0.0,0.0,74,0.00,,,0.00,WUHU216HW,2013-02-19 08:11:00,
2013-02-19 03:16:00,31.3,24.3,29.80,South,180,0.0,0.0,75,0.00,,,0.00,WUHU216HW,2013-02-19 08:16:00,
2013-02-19 03:21:00,31.5,24.5,29.80,WNW,293,0.0,0.4,75,0.00,,,0.00,WUHU216HW,2013-02-19 08:21:00,
2013-02-19 03:26:00,31.7,24.3,29.80,WNW,293,0.0,0.4,74,0.00,,,0.00,WUHU216HW,2013-02-19 08:26:00,
2013-02-19 03:31:00,31.5,24.5,29.78,NE,45,0.7,0.7,75,0.00,,,0.00,WUHU216HW,2013-02-19 08:31:00,
2013-02-19 03:36:00,31.3,24.7,29.78,ENE,68,0.0,0.7,76,0.00,,,0.00,WUHU216HW,2013-02-19 08:36:00,
2013-02-19 03:41:00,31.3,24.7,29.78,WSW,248,1.3,1.3,76,0.00,,,0.00,WUHU216HW,2013-02-19 08:41:00,
2013-02-19 03:46:00,31.3,24.7,29.79,West,270,0.0,1.3,76,0.00,,,0.00,WUHU216HW,2013-02-19 08:46:00,
2013-02-19 03:51:00,31.3,24.7,29.79,NNE,23,0.4,1.3,76,0.00,,,0.00,WUHU216HW,2013-02-19 08:51:00,
2013-02-19 03:56:00,31.3,24.7,29.79,NNW,338,0.7,0.7,76,0.00,,,0.00,WUHU216HW,2013-02-19 08:56:00,
2013-02-19 04:01:00,31.3,24.7,29.78,NW,315,0.0,0.7,76,0.00,,,0.00,WUHU216HW,2013-02-19 09:01:00,
2013-02-19 04:06:00,31.1,24.5,29.78,NW,315,0.0,0.7,76,0.00,,,0.00,WUHU216HW,2013-02-19 09:06:00,
2013-02-19 04:11:00,31.0,24.3,29.78,NW,315,0.0,0.7,76,0.00,,,0.00,WUHU216HW,2013-02-19 09:11:00,
2013-02-19 04:16:00,31.0,24.3,29.78,NNW,338,0.0,0.0,76,0.00,,,0.00,WUHU216HW,2013-02-19 09:16:00,
2013-02-19 04:21:00,31.1,24.5,29.78,NNW,338,0.0,0.0,76,0.00,,,0.00,WUHU216HW,2013-02-19 09:21:00,
2013-02-19 04:26:00,31.3,24.7,29.78,NNW,338,0.0,0.0,76,0.00,,,0.00,WUHU216HW,2013-02-19 09:26:00,
2013-02-19 04:31:00,31.7,25.0,29.78,WSW,248,0.7,1.6,76,0.00,,,0.00,WUHU216HW,2013-02-19 09:31:00,
2013-02-19 04:36:00,32.2,25.5,29.78,West,270,0.0,1.6,76,0.00,,,0.00,WUHU216HW,2013-02-19 09:36:00,
2013-02-19 04:41:00,32.6,25.8,29.78,SW,225,0.0,0.4,76,0.00,,,0.00,WUHU216HW,2013-02-19 09:41:00,
2013-02-19 04:46:00,32.8,26.0,29.78,SSW,203,0.9,0.9,76,0.00,,,0.00,WUHU216HW,2013-02-19 09:46:00,
2013-02-19 04:51:00,32.9,25.8,29.79,SSW,203,0.4,0.9,75,0.00,,,0.00,WUHU216HW,2013-02-19 09:51:00,
2013-02-19 04:56:00,33.1,26.0,29.79,South,180,0.4,1.1,75,0.00,,,0.00,WUHU216HW,2013-02-19 09:56:00,
2013-02-19 05:01:00,33.5,26.0,29.80,South,180,1.1,1.3,74,0.00,,,0.00,WUHU216HW,2013-02-19 10:01:00,
2013-02-19 05:06:00,33.5,26.3,29.79,South,180,2.0,3.8,75,0.00,,,0.00,WUHU216HW,2013-02-19 10:06:00,
2013-02-19 05:11:00,33.1,26.3,29.79,SSW,203,1.8,3.8,76,0.00,,,0.00,WUHU216HW,2013-02-19 10:11:00,
2013-02-19 05:16:00,32.9,27.1,29.79,SSW,203,1.8,3.4,79,0.00,,,0.00,WUHU216HW,2013-02-19 10:16:00,
2013-02-19 05:21:00,32.9,27.1,29.79,SSW,203,1.8,3.4,79,0.00,,,0.00,WUHU216HW,2013-02-19 10:21:00,
2013-02-19 05:26:00,32.8,27.9,29.79,SW,225,0.7,2.5,82,0.00,,,0.00,WUHU216HW,2013-02-19 10:26:00,
2013-02-19 05:31:00,32.8,27.3,29.79,SW,225,0.7,1.8,80,0.00,,,0.00,WUHU216HW,2013-02-19 10:31:00,
2013-02-19 05:36:00,32.8,27.5,29.78,SSW,203,0.4,1.3,81,0.00,,,0.00,WUHU216HW,2013-02-19 10:36:00,
2013-02-19 05:41:00,32.8,27.5,29.78,SSW,203,0.0,1.3,81,0.00,,,0.00,WUHU216HW,2013-02-19 10:41:00,
2013-02-19 05:46:00,32.8,27.5,29.78,SSW,203,0.0,0.7,81,0.00,,,0.00,WUHU216HW,2013-02-19 10:46:00,
2013-02-19 05:51:00,32.8,27.5,29.77,SSW,203,0.0,0.9,81,0.00,,,0.00,WUHU216HW,2013-02-19 10:51:00,
2013-02-19 05:56:00,32.9,27.7,29.77,SSW,203,0.7,0.9,81,0.00,,,0.00,WUHU216HW,2013-02-19 10:56:00,
2013-02-19 06:01:00,32.9,27.7,29.77,SSW,203,0.7,0.9,81,0.00,,,0.00,WUHU216HW,2013-02-19 11:01:00,
2013-02-19 06:06:00,33.1,28.4,29.77,SSW,203,0.4,0.9,83,0.00,,,0.00,WUHU216HW,2013-02-19 11:06:00,
2013-02-19 06:11:00,33.1,29.1,29.76,SSW,203,0.7,0.9,85,0.00,,,0.00,WUHU216HW,2013-02-19 11:11:00,
2013-02-19 06:16:00,33.1,28.4,29.76,SSW,203,0.7,1.8,83,0.00,,,0.00,WUHU216HW,2013-02-19 11:16:00,
2013-02-19 06:21:00,33.3,28.9,29.76,SSW,203,0.4,1.8,84,0.00,,,0.00,WUHU216HW,2013-02-19 11:21:00,
2013-02-19 06:26:00,33.3,29.3,29.76,SSW,203,0.2,1.8,85,0.00,,,0.00,WUHU216HW,2013-02-19 11:26:00,
2013-02-19 06:31:00,33.3,28.9,29.76,SSW,203,0.4,1.8,84,0.00,,,0.00,WUHU216HW,2013-02-19 11:31:00,
2013-02-19 06:36:00,33.5,29.3,29.76,SSW,203,1.8,1.8,85,0.00,,,0.00,WUHU216HW,2013-02-19 11:36:00,
2013-02-19 06:41:00,33.5,29.1,29.76,SSW,203,0.7,1.8,84,0.00,,,0.00,WUHU216HW,2013-02-19 11:41:00,
2013-02-19 06:46:00,33.5,29.3,29.75,SSW,203,0.0,1.1,85,0.00,,,0.00,WUHU216HW,2013-02-19 11:46:00,
2013-02-19 06:51:00,33.3,29.3,29.75,SSW,203,0.0,1.1,85,0.00,,,0.00,WUHU216HW,2013-02-19 11:51:00,
2013-02-19 06:56:00,33.3,29.3,29.75,SSW,203,0.0,0.4,85,0.00,,,0.00,WUHU216HW,2013-02-19 11:56:00,
2013-02-19 07:01:00,33.3,29.3,29.76,SSW,203,0.0,0.4,85,0.00,,,0.00,WUHU216HW,2013-02-19 12:01:00,
2013-02-19 07:06:00,33.5,29.1,29.76,SSW,203,0.0,0.0,84,0.00,,,0.00,WUHU216HW,2013-02-19 12:06:00,
2013-02-19 07:11:00,33.5,29.1,29.76,SSW,203,0.0,0.0,84,0.00,,,0.00,WUHU216HW,2013-02-19 12:11:00,
2013-02-19 07:16:00,33.5,29.3,29.75,SSW,203,0.0,0.0,85,0.00,,,0.00,WUHU216HW,2013-02-19 12:16:00,
2013-02-19 07:21:00,33.5,29.3,29.75,SSW,203,0.0,0.0,85,0.00,,,0.00,WUHU216HW,2013-02-19 12:21:00,
2013-02-19 07:26:00,33.5,29.3,29.75,SSW,203,0.0,0.0,85,0.00,,,0.00,WUHU216HW,2013-02-19 12:26:00,
2013-02-19 07:31:00,33.5,29.1,29.75,SSW,203,0.0,0.0,84,0.00,,,0.00,WUHU216HW,2013-02-19 12:31:00,
2013-02-19 07:36:00,33.5,29.3,29.75,SSW,203,0.0,0.0,85,0.00,,,0.00,WUHU216HW,2013-02-19 12:36:00,
2013-02-19 07:41:00,33.5,29.3,29.74,SSW,203,0.0,0.0,85,0.00,,,0.00,WUHU216HW,2013-02-19 12:41:00,
2013-02-19 07:46:00,33.5,29.3,29.74,SSW,203,0.0,0.0,85,0.00,,,0.00,WUHU216HW,2013-02-19 12:46:00,
2013-02-19 07:51:00,33.7,29.8,29.74,SSW,203,0.0,0.0,86,0.00,,,0.00,WUHU216HW,2013-02-19 12:51:00,
2013-02-19 07:56:00,33.7,29.8,29.74,SSW,203,0.0,0.0,86,0.00,,,0.00,WUHU216HW,2013-02-19 12:56:00,
2013-02-19 08:01:00,33.7,29.8,29.73,SSW,203,0.0,0.0,86,0.00,,,0.00,WUHU216HW,2013-02-19 13:01:00,
2013-02-19 08:06:00,33.8,30.0,29.74,SSW,203,0.0,0.0,86,0.00,,,0.00,WUHU216HW,2013-02-19 13:06:00,
2013-02-19 08:11:00,33.8,29.7,29.73,SSW,203,0.0,0.0,85,0.00,,,0.00,WUHU216HW,2013-02-19 13:11:00,
2013-02-19 08:16:00,33.8,29.7,29.73,SSW,203,0.0,0.0,85,0.00,,,0.00,WUHU216HW,2013-02-19 13:16:00,
2013-02-19 08:21:00,33.8,29.7,29.74,SSW,203,0.0,0.0,85,0.00,,,0.00,WUHU216HW,2013-02-19 13:21:00,
2013-02-19 08:26:00,34.0,29.9,29.74,SSW,203,0.0,0.0,85,0.00,,,0.00,WUHU216HW,2013-02-19 13:26:00,
2013-02-19 08:31:00,34.0,29.9,29.73,SSW,203,0.0,0.0,85,0.00,,,0.00,WUHU216HW,2013-02-19 13:31:00,
2013-02-19 08:36:00,34.0,29.9,29.73,SSW,203,0.0,0.0,85,0.00,,,0.00,WUHU216HW,2013-02-19 13:36:00,
2013-02-19 08:41:00,34.0,29.9,29.73,SSW,203,0.0,0.0,85,0.00,,,0.00,WUHU216HW,2013-02-19 13:41:00,
2013-02-19 08:46:00,34.2,30.1,29.73,SSW,203,0.0,0.0,85,0.00,,,0.00,WUHU216HW,2013-02-19 13:46:00,
2013-02-19 08:51:00,34.2,30.1,29.72,SSW,203,0.0,0.0,85,0.00,,,0.00,WUHU216HW,2013-02-19 13:51:00,
2013-02-19 08:56:00,34.0,30.2,29.72,SSW,203,0.0,0.0,86,0.00,,,0.00,WUHU216HW,2013-02-19 13:56:00,
2013-02-19 09:01:00,34.0,30.2,29.72,SSW,203,0.0,0.0,86,0.00,,,0.00,WUHU216HW,2013-02-19 14:01:00,
2013-02-19 09:06:00,34.2,30.3,29.71,SSW,203,0.0,0.0,86,0.00,,,0.00,WUHU216HW,2013-02-19 14:06:00,
2013-02-19 09:11:00,34.2,30.1,29.71,SSW,203,0.0,0.0,85,0.00,,,0.00,WUHU216HW,2013-02-19 14:11:00,
2013-02-19 09:16:00,34.2,30.3,29.71,SSW,203,0.0,0.0,86,0.00,,,0.00,WUHU216HW,2013-02-19 14:16:00,
2013-02-19 09:21:00,34.4,30.5,29.72,SSW,203,0.0,0.0,86,0.00,,,0.00,WUHU216HW,2013-02-19 14:21:00,
2013-02-19 09:26:00,34.2,30.1,29.71,SSW,203,0.0,0.0,85,0.00,,,0.00,WUHU216HW,2013-02-19 14:26:00,
2013-02-19 09:31:00,34.4,30.2,29.71,SSW,203,0.0,0.0,85,0.00,,,0.00,WUHU216HW,2013-02-19 14:31:00,
2013-02-19 09:36:00,34.6,30.4,29.71,SSW,203,0.0,0.0,85,0.00,,,0.00,WUHU216HW,2013-02-19 14:36:00,
2013-02-19 09:41:00,34.7,30.6,29.71,SSW,203,0.0,0.0,85,0.00,,,0.00,WUHU216HW,2013-02-19 14:41:00,
2013-02-19 09:46:00,34.9,30.8,29.71,SSW,203,0.0,0.0,85,0.00,,,0.00,WUHU216HW,2013-02-19 14:46:00,
2013-02-19 09:51:00,34.9,30.8,29.71,SSW,203,0.0,0.0,85,0.00,,,0.00,WUHU216HW,2013-02-19 14:51:00,
2013-02-19 09:56:00,34.9,30.8,29.71,SSW,203,0.0,0.0,85,0.00,,,0.00,WUHU216HW,2013-02-19 14:56:00,
2013-02-19 10:01:00,34.9,30.8,29.70,SSW,203,0.0,0.0,85,0.00,,,0.00,WUHU216HW,2013-02-19 15:01:00,
2013-02-19 10:06:00,34.9,30.8,29.70,SSW,203,0.0,0.0,85,0.00,,,0.00,WUHU216HW,2013-02-19 15:06:00,
2013-02-19 10:11:00,34.9,30.8,29.70,SSW,203,0.0,0.0,85,0.00,,,0.00,WUHU216HW,2013-02-19 15:11:00,
2013-02-19 10:16:00,35.1,31.0,29.70,SSW,203,0.0,0.0,85,0.00,,,0.00,WUHU216HW,2013-02-19 15:16:00,
2013-02-19 10:21:00,35.1,31.0,29.70,SSW,203,0.0,0.0,85,0.00,,,0.00,WUHU216HW,2013-02-19 15:21:00,
2013-02-19 10:26:00,35.3,31.1,29.70,SSW,203,0.0,0.0,85,0.00,,,0.00,WUHU216HW,2013-02-19 15:26:00,
2013-02-19 10:31:00,35.3,31.1,29.69,SSW,203,0.0,0.0,85,0.00,,,0.00,WUHU216HW,2013-02-19 15:31:00,
2013-02-19 10:36:00,35.5,31.3,29.69,SSW,203,0.0,0.0,85,0.00,,,0.00,WUHU216HW,2013-02-19 15:36:00,
2013-02-19 10:41:00,35.5,31.3,29.69,SSW,203,0.0,0.0,85,0.00,,,0.00,WUHU216HW,2013-02-19 15:41:00,
2013-02-19 10:46:00,35.5,31.3,29.69,SSW,203,0.0,0.2,85,0.00,,,0.00,WUHU216HW,2013-02-19 15:46:00,
2013-02-19 10:51:00,35.6,31.5,29.69,SSW,203,0.0,0.2,85,0.00,,,0.00,WUHU216HW,2013-02-19 15:51:00,
2013-02-19 10:56:00,35.6,31.5,29.69,SSW,203,0.0,0.0,85,0.00,,,0.00,WUHU216HW,2013-02-19 15:56:00,
2013-02-19 11:01:00,35.6,31.5,29.69,SSW,203,0.0,0.0,85,0.00,,,0.00,WUHU216HW,2013-02-19 16:01:00,
2013-02-19 11:06:00,35.5,31.3,29.68,SSW,203,0.0,0.0,85,0.00,,,0.00,WUHU216HW,2013-02-19 16:06:00,
2013-02-19 11:11:00,35.5,31.3,29.69,SSW,203,0.0,0.0,85,0.00,,,0.00,WUHU216HW,2013-02-19 16:11:00,
2013-02-19 11:16:00,35.3,31.1,29.69,SSW,203,0.0,0.2,85,0.00,,,0.00,WUHU216HW,2013-02-19 16:16:00,
2013-02-19 11:21:00,35.1,31.0,29.68,SSW,203,0.0,0.2,85,0.00,,,0.00,WUHU216HW,2013-02-19 16:21:00,
2013-02-19 11:26:00,35.3,31.1,29.68,SSW,203,0.0,0.2,85,0.00,,,0.00,WUHU216HW,2013-02-19 16:26:00,
2013-02-19 11:31:00,35.3,31.1,29.68,SSW,203,0.0,0.7,85,0.00,,,0.00,WUHU216HW,2013-02-19 16:31:00,
2013-02-19 11:36:00,35.3,31.4,29.68,SSW,203,0.0,0.7,86,0.00,,,0.00,WUHU216HW,2013-02-19 16:36:00,
2013-02-19 11:41:00,35.5,31.3,29.67,SSW,203,0.0,0.0,85,0.00,,,0.00,WUHU216HW,2013-02-19 16:41:00,
2013-02-19 11:46:00,35.6,31.8,29.67,SSW,203,0.0,0.0,86,0.00,,,0.00,WUHU216HW,2013-02-19 16:46:00,
2013-02-19 11:51:00,36.0,32.1,29.67,SSW,203,0.0,0.9,86,0.00,,,0.00,WUHU216HW,2013-02-19 16:51:00,
2013-02-19 11:56:00,36.2,32.3,29.67,SSW,203,0.0,0.9,86,0.00,,,0.00,WUHU216HW,2013-02-19 16:56:00,
2013-02-19 12:01:00,36.0,32.1,29.67,SSW,203,0.0,1.1,86,0.00,,,0.00,WUHU216HW,2013-02-19 17:01:00,
2013-02-19 12:06:00,35.8,32.0,29.66,SSW,203,0.0,1.1,86,0.00,,,0.00,WUHU216HW,2013-02-19 17:06:00,
2013-02-19 12:11:00,35.6,31.5,29.66,SSW,203,1.1,1.1,85,0.00,,,0.00,WUHU216HW,2013-02-19 17:11:00,
2013-02-19 12:16:00,35.6,31.5,29.65,SSW,203,0.0,1.1,85,0.00,,,0.00,WUHU216HW,2013-02-19 17:16:00,
2013-02-19 12:21:00,35.6,31.8,29.65,SSW,203,0.0,1.1,86,0.00,,,0.00,WUHU216HW,2013-02-19 17:21:00,
2013-02-19 12:26:00,35.8,32.2,29.65,SSW,203,0.0,0.9,87,0.00,,,0.00,WUHU216HW,2013-02-19 17:26:00,
2013-02-19 12:31:00,36.0,32.4,29.65,SSW,203,1.3,1.3,87,0.00,,,0.00,WUHU216HW,2013-02-19 17:31:00,
2013-02-19 12:36:00,36.4,32.8,29.64,SSW,203,0.9,1.3,87,0.00,,,0.00,WUHU216HW,2013-02-19 17:36:00,
2013-02-19 12:41:00,36.4,32.5,29.64,SSW,203,0.7,1.3,86,0.00,,,0.00,WUHU216HW,2013-02-19 17:41:00,
2013-02-19 12:46:00,36.5,32.7,29.63,SW,225,0.0,1.1,86,0.00,,,0.00,WUHU216HW,2013-02-19 17:46:00,
2013-02-19 12:51:00,36.7,32.9,29.63,SW,225,0.0,1.1,86,0.00,,,0.00,WUHU216HW,2013-02-19 17:51:00,
2013-02-19 12:56:00,36.9,33.0,29.63,SW,225,0.0,0.9,86,0.01,,,0.00,WUHU216HW,2013-02-19 17:56:00,
2013-02-19 13:01:00,36.9,33.0,29.62,SW,225,0.0,0.9,86,0.01,,,0.00,WUHU216HW,2013-02-19 18:01:00,
2013-02-19 13:06:00,36.7,32.9,29.62,SW,225,0.9,1.1,86,0.01,,,0.00,WUHU216HW,2013-02-19 18:06:00,
2013-02-19 13:11:00,36.9,33.0,29.62,SSW,203,0.4,1.1,86,0.01,,,0.00,WUHU216HW,2013-02-19 18:11:00,
2013-02-19 13:16:00,37.1,33.2,29.62,WSW,248,0.0,1.6,86,0.02,,,0.00,WUHU216HW,2013-02-19 18:16:00,
2013-02-19 13:21:00,37.1,33.2,29.61,SSW,203,0.0,1.6,86,0.02,,,0.00,WUHU216HW,2013-02-19 18:21:00,
2013-02-19 13:26:00,37.4,33.6,29.61,WSW,248,1.1,1.8,86,0.03,,,0.01,WUHU216HW,2013-02-19 18:26:00,
2013-02-19 13:31:00,37.6,33.8,29.61,SSW,203,1.6,1.8,86,0.03,,,0.01,WUHU216HW,2013-02-19 18:31:00,
2013-02-19 13:36:00,38.2,34.3,29.61,SSW,203,1.1,4.0,86,0.04,,,0.02,WUHU216HW,2013-02-19 18:36:00,
2013-02-19 13:41:00,38.9,35.0,29.60,WSW,248,0.7,4.0,86,0.04,,,0.02,WUHU216HW,2013-02-19 18:41:00,
2013-02-19 13:46:00,39.8,35.9,29.60,WSW,248,2.9,2.9,86,0.05,,,0.03,WUHU216HW,2013-02-19 18:46:00,
2013-02-19 13:51:00,40.7,36.5,29.60,SSW,203,1.1,3.4,85,0.05,,,0.03,WUHU216HW,2013-02-19 18:51:00,
2013-02-19 13:56:00,41.2,36.7,29.59,SW,225,0.7,3.4,84,0.05,,,0.04,WUHU216HW,2013-02-19 18:56:00,
2013-02-19 14:01:00,42.3,38.1,29.59,West,270,0.7,2.9,85,0.06,,,0.05,WUHU216HW,2013-02-19 19:01:00,
2013-02-19 14:06:00,42.8,38.4,29.59,SW,225,1.3,4.7,84,0.07,,,0.06,WUHU216HW,2013-02-19 19:06:00,
2013-02-19 14:11:00,43.2,38.3,29.58,WSW,248,3.1,4.7,83,0.08,,,0.07,WUHU216HW,2013-02-19 19:11:00,
2013-02-19 14:16:00,42.5,37.0,29.59,WSW,248,3.8,4.5,81,0.07,,,0.07,WUHU216HW,2013-02-19 19:16:00,
2013-02-19 14:21:00,41.0,35.9,29.60,SSE,158,5.4,5.6,82,0.08,,,0.08,WUHU216HW,2013-02-19 19:21:00,
2013-02-19 14:26:00,40.0,34.9,29.60,SSW,203,4.9,6.9,82,0.08,,,0.09,WUHU216HW,2013-02-19 19:26:00,
2013-02-19 14:31:00,39.6,34.8,29.60,SSW,203,3.6,6.9,83,0.10,,,0.11,WUHU216HW,2013-02-19 19:31:00,
2013-02-19 14:36:00,39.6,35.2,29.61,SSW,203,1.6,4.9,84,0.09,,,0.11,WUHU216HW,2013-02-19 19:36:00,
2013-02-19 14:41:00,40.0,35.5,29.61,West,270,3.1,4.7,84,0.09,,,0.11,WUHU216HW,2013-02-19 19:41:00,
2013-02-19 14:46:00,40.1,34.1,29.61,WSW,248,4.7,6.9,79,0.09,,,0.12,WUHU216HW,2013-02-19 19:46:00,
2013-02-19 14:51:00,40.3,34.3,29.60,WSW,248,4.3,7.4,79,0.10,,,0.13,WUHU216HW,2013-02-19 19:51:00,
2013-02-19 14:56:00,40.3,34.7,29.60,SW,225,2.0,7.4,80,0.08,,,0.13,WUHU216HW,2013-02-19 19:56:00,
2013-02-19 15:01:00,40.5,34.5,29.61,West,270,3.8,6.0,79,0.08,,,0.13,WUHU216HW,2013-02-19 20:01:00,
2013-02-19 15:06:00,40.5,33.9,29.61,West,270,1.3,6.0,77,0.08,,,0.14,WUHU216HW,2013-02-19 20:06:00,
2013-02-19 15:11:00,40.5,32.1,29.61,WNW,293,0.4,9.6,72,0.07,,,0.14,WUHU216HW,2013-02-19 20:11:00,
2013-02-19 15:16:00,40.7,33.0,29.61,WSW,248,2.9,9.6,74,0.07,,,0.15,WUHU216HW,2013-02-19 20:16:00,
2013-02-19 15:21:00,40.7,32.1,29.61,WSW,248,5.1,11.4,71,0.06,,,0.15,WUHU216HW,2013-02-19 20:21:00,
2013-02-19 15:26:00,40.7,31.7,29.60,NW,315,5.4,11.4,70,0.05,,,0.15,WUHU216HW,2013-02-19 20:26:00,
2013-02-19 15:31:00,40.7,30.5,29.60,WSW,248,8.5,10.5,67,0.04,,,0.15,WUHU216HW,2013-02-19 20:31:00,
2013-02-19 15:36:00,40.7,30.2,29.60,SSW,203,6.5,10.5,66,0.04,,,0.15,WUHU216HW,2013-02-19 20:36:00,
2013-02-19 15:41:00,40.7,30.5,29.60,WSW,248,4.7,9.2,67,0.04,,,0.16,WUHU216HW,2013-02-19 20:41:00,
2013-02-19 15:46:00,40.7,30.5,29.61,West,270,4.5,8.3,67,0.04,,,0.16,WUHU216HW,2013-02-19 20:46:00,
2013-02-19 15:51:00,40.1,29.3,29.61,SW,225,6.3,10.1,65,0.03,,,0.16,WUHU216HW,2013-02-19 20:51:00,
2013-02-19 15:56:00,40.0,29.1,29.61,WSW,248,9.8,11.4,65,0.04,,,0.17,WUHU216HW,2013-02-19 20:56:00,
2013-02-19 16:01:00,40.0,28.4,29.62,NW,315,6.3,11.4,63,0.04,,,0.17,WUHU216HW,2013-02-19 21:01:00,
2013-02-19 16:06:00,40.3,29.1,29.62,WSW,248,6.5,9.8,64,0.03,,,0.17,WUHU216HW,2013-02-19 21:06:00,
2013-02-19 16:11:00,40.3,28.7,29.61,WSW,248,4.0,8.7,63,0.03,,,0.17,WUHU216HW,2013-02-19 21:11:00,
2013-02-19 16:16:00,40.5,28.9,29.62,WSW,248,4.5,8.1,63,0.02,,,0.17,WUHU216HW,2013-02-19 21:16:00,
2013-02-19 16:21:00,40.5,26.8,29.62,NNW,338,6.7,6.7,58,0.02,,,0.17,WUHU216HW,2013-02-19 21:21:00,
2013-02-19 16:26:00,40.1,28.1,29.62,West,270,5.1,10.1,62,0.02,,,0.17,WUHU216HW,2013-02-19 21:26:00,
2013-02-19 16:31:00,39.8,28.2,29.63,NW,315,4.0,10.1,63,0.02,,,0.17,WUHU216HW,2013-02-19 21:31:00,
2013-02-19 16:36:00,39.4,27.8,29.63,West,270,7.8,7.8,63,0.01,,,0.17,WUHU216HW,2013-02-19 21:36:00,
2013-02-19 16:41:00,39.6,28.0,29.64,WSW,248,6.9,9.8,63,0.02,,,0.18,WUHU216HW,2013-02-19 21:41:00,
2013-02-19 16:46:00,39.4,27.8,29.64,NNW,338,6.9,9.8,63,0.02,,,0.18,WUHU216HW,2013-02-19 21:46:00,
2013-02-19 16:51:00,39.2,27.6,29.64,West,270,6.9,11.9,63,0.02,,,0.18,WUHU216HW,2013-02-19 21:51:00,
2013-02-19 16:56:00,38.7,27.5,29.64,WNW,293,5.6,11.9,64,0.01,,,0.18,WUHU216HW,2013-02-19 21:56:00,
2013-02-19 17:01:00,38.5,27.7,29.64,WSW,248,5.1,10.3,65,0.01,,,0.18,WUHU216HW,2013-02-19 22:01:00,
2013-02-19 17:06:00,38.5,27.4,29.64,WSW,248,4.0,11.4,64,0.01,,,0.18,WUHU216HW,2013-02-19 22:06:00,
2013-02-19 17:11:00,38.3,27.2,29.64,WNW,293,4.0,11.4,64,0.02,,,0.19,WUHU216HW,2013-02-19 22:11:00,
2013-02-19 17:16:00,38.2,28.2,29.65,NW,315,6.5,12.3,67,0.02,,,0.19,WUHU216HW,2013-02-19 22:16:00,
2013-02-19 17:21:00,37.8,27.8,29.65,SW,225,8.5,14.8,67,0.02,,,0.19,WUHU216HW,2013-02-19 22:21:00,
2013-02-19 17:26:00,37.6,28.0,29.65,WSW,248,4.7,14.8,68,0.02,,,0.19,WUHU216HW,2013-02-19 22:26:00,
2013-02-19 17:31:00,37.4,27.5,29.65,WSW,248,3.4,8.5,67,0.02,,,0.19,WUHU216HW,2013-02-19 22:31:00,
2013-02-19 17:36:00,37.4,26.7,29.65,WNW,293,5.1,11.4,65,0.01,,,0.19,WUHU216HW,2013-02-19 22:36:00,
2013-02-19 17:41:00,37.4,26.4,29.65,NW,315,6.3,11.4,64,0.01,,,0.19,WUHU216HW,2013-02-19 22:41:00,
2013-02-19 17:46:00,37.4,26.0,29.65,West,270,7.4,8.7,63,0.01,,,0.19,WUHU216HW,2013-02-19 22:46:00,
2013-02-19 17:51:00,37.4,26.4,29.66,WSW,248,4.5,9.6,64,0.01,,,0.19,WUHU216HW,2013-02-19 22:51:00,
2013-02-19 17:56:00,37.3,26.2,29.66,WNW,293,3.4,9.6,64,0.01,,,0.19,WUHU216HW,2013-02-19 22:56:00,
2013-02-19 18:01:00,37.4,24.4,29.66,West,270,5.4,9.2,59,0.01,,,0.19,WUHU216HW,2013-02-19 23:01:00,
2013-02-19 18:06:00,37.4,25.2,29.66,WSW,248,5.8,9.2,61,0.01,,,0.19,WUHU216HW,2013-02-19 23:06:00,
2013-02-19 18:11:00,37.3,25.5,29.67,WSW,248,3.1,8.5,62,0.00,,,0.19,WUHU216HW,2013-02-19 23:11:00,
2013-02-19 18:16:00,37.1,25.3,29.67,West,270,6.9,8.5,62,0.00,,,0.19,WUHU216HW,2013-02-19 23:16:00,
2013-02-19 18:21:00,36.9,24.8,29.67,WSW,248,5.4,7.4,61,0.00,,,0.19,WUHU216HW,2013-02-19 23:21:00,
2013-02-19 18:26:00,36.7,24.9,29.68,WSW,248,3.8,7.4,62,0.00,,,0.19,WUHU216HW,2013-02-19 23:26:00,
2013-02-19 18:31:00,36.7,24.9,29.68,West,270,4.3,7.8,62,0.00,,,0.19,WUHU216HW,2013-02-19 23:31:00,
2013-02-19 18:36:00,36.7,23.8,29.68,NNW,338,4.9,7.8,59,0.00,,,0.19,WUHU216HW,2013-02-19 23:36:00,
2013-02-19 18:41:00,36.7,24.2,29.68,NNW,338,5.1,5.4,60,0.00,,,0.19,WUHU216HW,2013-02-19 23:41:00,
2013-02-19 18:46:00,36.7,24.2,29.68,WSW,248,1.6,6.3,60,0.00,,,0.19,WUHU216HW,2013-02-19 23:46:00,
2013-02-19 18:51:00,36.5,24.0,29.68,SW,225,3.4,7.2,60,0.00,,,0.19,WUHU216HW,2013-02-19 23:51:00,
2013-02-19 18:56:00,36.4,23.9,29.69,WSW,248,5.1,10.5,60,0.00,,,0.19,WUHU216HW,2013-02-19 23:56:00,
2013-02-19 19:01:00,36.2,23.7,29.69,SW,225,4.9,10.5,60,0.00,,,0.19,WUHU216HW,2013-02-20 00:01:00,
2013-02-19 19:06:00,36.0,22.2,29.70,West,270,7.6,11.6,57,0.00,,,0.19,WUHU216HW,2013-02-20 00:06:00,
2013-02-19 19:11:00,35.8,21.3,29.70,NNW,338,4.7,11.6,55,0.00,,,0.19,WUHU216HW,2013-02-20 00:11:00,
2013-02-19 19:16:00,35.8,22.1,29.70,WNW,293,5.4,11.4,57,0.00,,,0.19,WUHU216HW,2013-02-20 00:16:00,
2013-02-19 19:21:00,35.6,21.5,29.70,West,270,1.8,8.1,56,0.00,,,0.19,WUHU216HW,2013-02-20 00:21:00,
2013-02-19 19:26:00,35.5,21.3,29.70,WSW,248,3.4,8.1,56,0.00,,,0.19,WUHU216HW,2013-02-20 00:26:00,
2013-02-19 19:31:00,35.3,22.0,29.70,SSW,203,4.0,9.2,58,0.00,,,0.19,WUHU216HW,2013-02-20 00:31:00,
2013-02-19 19:36:00,35.1,21.8,29.70,WNW,293,7.2,9.2,58,0.00,,,0.19,WUHU216HW,2013-02-20 00:36:00,
2013-02-19 19:41:00,34.9,21.3,29.71,WNW,293,4.7,8.9,57,0.00,,,0.19,WUHU216HW,2013-02-20 00:41:00,
2013-02-19 19:46:00,34.9,21.6,29.71,SW,225,4.7,8.5,58,0.00,,,0.19,WUHU216HW,2013-02-20 00:46:00,
2013-02-19 19:51:00,34.9,22.1,29.71,WSW,248,4.3,8.1,59,0.00,,,0.19,WUHU216HW,2013-02-20 00:51:00,
2013-02-19 19:56:00,34.7,22.3,29.71,WSW,248,4.5,8.7,60,0.00,,,0.19,WUHU216HW,2013-02-20 00:56:00,
2013-02-19 20:01:00,34.6,22.1,29.71,West,270,5.4,8.9,60,0.00,,,0.19,WUHU216HW,2013-02-20 01:01:00,
2013-02-19 20:06:00,34.4,22.3,29.71,WSW,248,4.5,8.9,61,0.00,,,0.19,WUHU216HW,2013-02-20 01:06:00,
2013-02-19 20:11:00,34.2,22.1,29.71,WSW,248,4.3,8.1,61,0.00,,,0.19,WUHU216HW,2013-02-20 01:11:00,
2013-02-19 20:16:00,34.0,21.6,29.72,West,270,8.5,8.5,60,0.00,,,0.19,WUHU216HW,2013-02-20 01:16:00,
2013-02-19 20:21:00,33.8,21.8,29.72,West,270,3.6,8.5,61,0.00,,,0.19,WUHU216HW,2013-02-20 01:21:00,
2013-02-19 20:26:00,33.7,21.2,29.72,WNW,293,4.3,9.8,60,0.00,,,0.19,WUHU216HW,2013-02-20 01:26:00,
2013-02-19 20:31:00,33.5,20.7,29.72,WNW,293,6.3,11.4,59,0.00,,,0.19,WUHU216HW,2013-02-20 01:31:00,
2013-02-19 20:36:00,33.5,21.1,29.72,NW,315,3.4,11.4,60,0.00,,,0.19,WUHU216HW,2013-02-20 01:36:00,
2013-02-19 20:41:00,33.3,20.5,29.72,NW,315,4.9,8.7,59,0.00,,,0.19,WUHU216HW,2013-02-20 01:41:00,
2013-02-19 20:46:00,33.1,21.2,29.73,West,270,3.6,6.9,61,0.00,,,0.19,WUHU216HW,2013-02-20 01:46:00,
2013-02-19 20:51:00,32.9,20.6,29.73,West,270,10.1,10.1,60,0.00,,,0.19,WUHU216HW,2013-02-20 01:51:00,
2013-02-19 20:56:00,32.8,20.8,29.73,West,270,4.0,10.1,61,0.00,,,0.19,WUHU216HW,2013-02-20 01:56:00,
2013-02-19 21:01:00,32.4,20.9,29.73,SW,225,3.6,10.1,62,0.00,,,0.19,WUHU216HW,2013-02-20 02:01:00,
2013-02-19 21:06:00,32.2,20.7,29.73,WSW,248,4.7,8.3,62,0.00,,,0.19,WUHU216HW,2013-02-20 02:06:00,
2013-02-19 21:11:00,32.0,20.5,29.73,SW,225,6.9,7.6,62,0.00,,,0.19,WUHU216HW,2013-02-20 02:11:00,
2013-02-19 21:16:00,31.9,20.3,29.73,WNW,293,3.4,7.6,62,0.00,,,0.19,WUHU216HW,2013-02-20 02:16:00,
2013-02-19 21:21:00,31.7,19.8,29.73,WSW,248,4.0,11.0,61,0.00,,,0.19,WUHU216HW,2013-02-20 02:21:00,
2013-02-19 21:26:00,31.5,19.3,29.73,WSW,248,10.7,11.0,60,0.00,,,0.19,WUHU216HW,2013-02-20 02:26:00,
2013-02-19 21:31:00,31.5,19.6,29.73,West,270,6.7,10.7,61,0.00,,,0.19,WUHU216HW,2013-02-20 02:31:00,
2013-02-19 21:36:00,31.3,19.1,29.73,NW,315,7.8,14.3,60,0.00,,,0.19,WUHU216HW,2013-02-20 02:36:00,
2013-02-19 21:41:00,31.3,19.1,29.73,WSW,248,4.5,14.3,60,0.00,,,0.19,WUHU216HW,2013-02-20 02:41:00,
2013-02-19 21:46:00,31.1,18.9,29.73,WSW,248,4.3,9.4,60,0.00,,,0.19,WUHU216HW,2013-02-20 02:46:00,
2013-02-19 21:51:00,31.1,18.9,29.74,SW,225,8.5,11.0,60,0.00,,,0.19,WUHU216HW,2013-02-20 02:51:00,
2013-02-19 21:56:00,31.0,18.7,29.73,WNW,293,6.5,11.0,60,0.00,,,0.19,WUHU216HW,2013-02-20 02:56:00,
2013-02-19 22:01:00,31.0,18.7,29.73,WSW,248,4.5,12.1,60,0.00,,,0.19,WUHU216HW,2013-02-20 03:01:00,
2013-02-19 22:06:00,30.8,18.9,29.74,WSW,248,5.6,12.1,61,0.00,,,0.19,WUHU216HW,2013-02-20 03:06:00,
2013-02-19 22:11:00,30.8,18.1,29.73,SW,225,6.0,9.8,59,0.00,,,0.19,WUHU216HW,2013-02-20 03:11:00,
2013-02-19 22:16:00,30.6,17.9,29.74,West,270,6.3,8.1,59,0.00,,,0.19,WUHU216HW,2013-02-20 03:16:00,
2013-02-19 22:21:00,30.6,18.4,29.74,North,0,2.9,7.6,60,0.00,,,0.19,WUHU216HW,2013-02-20 03:21:00,
2013-02-19 22:26:00,30.6,18.4,29.74,WSW,248,4.7,7.2,60,0.00,,,0.19,WUHU216HW,2013-02-20 03:26:00,
2013-02-19 22:31:00,30.4,17.7,29.74,North,0,4.5,12.1,59,0.00,,,0.19,WUHU216HW,2013-02-20 03:31:00,
2013-02-19 22:36:00,30.4,18.2,29.74,WSW,248,5.8,12.1,60,0.00,,,0.19,WUHU216HW,2013-02-20 03:36:00,
2013-02-19 22:41:00,30.2,17.2,29.74,WNW,293,6.0,14.3,58,0.00,,,0.19,WUHU216HW,2013-02-20 03:41:00,
2013-02-19 22:46:00,30.2,18.0,29.74,SSW,203,1.8,14.3,60,0.00,,,0.19,WUHU216HW,2013-02-20 03:46:00,
2013-02-19 22:51:00,30.2,18.0,29.74,North,0,6.9,8.5,60,0.00,,,0.19,WUHU216HW,2013-02-20 03:51:00,
2013-02-19 22:56:00,30.1,17.5,29.74,NNE,23,1.8,12.5,59,0.00,,,0.19,WUHU216HW,2013-02-20 03:56:00,
2013-02-19 23:01:00,29.9,17.3,29.74,NNW,338,10.7,12.5,59,0.00,,,0.19,WUHU216HW,2013-02-20 04:01:00,
2013-02-19 23:06:00,29.9,17.3,29.74,WSW,248,4.9,10.7,59,0.00,,,0.19,WUHU216HW,2013-02-20 04:06:00,
2013-02-19 23:11:00,29.9,17.6,29.74,WSW,248,3.1,10.7,60,0.00,,,0.19,WUHU216HW,2013-02-20 04:11:00,
2013-02-19 23:16:00,29.9,17.6,29.74,WSW,248,2.7,5.4,60,0.00,,,0.19,WUHU216HW,2013-02-20 04:16:00,
2013-02-19 23:21:00,29.7,17.6,29.74,SW,225,4.5,10.5,60,0.00,,,0.19,WUHU216HW,2013-02-20 04:21:00,
2013-02-19 23:26:00,29.7,17.1,29.74,WNW,293,4.7,10.5,59,0.00,,,0.19,WUHU216HW,2013-02-20 04:26:00,
2013-02-19 23:31:00,29.7,17.1,29.74,West,270,6.3,8.7,59,0.00,,,0.19,WUHU216HW,2013-02-20 04:31:00,
2013-02-19 23:36:00,29.5,16.6,29.74,WSW,248,13.6,13.6,58,0.00,,,0.19,WUHU216HW,2013-02-20 04:36:00,
2013-02-19 23:41:00,29.3,15.9,29.74,WSW,248,5.1,13.9,57,0.00,,,0.19,WUHU216HW,2013-02-20 04:41:00,
2013-02-19 23:46:00,29.2,15.8,29.74,WSW,248,4.7,13.9,57,0.00,,,0.19,WUHU216HW,2013-02-20 04:46:00,
2013-02-19 23:51:00,29.2,15.4,29.74,West,270,5.6,6.7,56,0.00,,,0.19,WUHU216HW,2013-02-20 04:51:00,
2013-02-19 23:56:00,29.0,15.2,29.74,NW,315,4.3,9.6,56,0.00,,,0.19,WUHU216HW,2013-02-20 04:56:00,